Year,Month,Day,Hour,Minute,Value (Times are PST for temperature in C)
2018,10,22,00,00,6.70
2018,10,22,00,01,6.70
2018,10,22,00,02,6.70
2018,10,22,00,03,6.70
2018,10,22,00,04,6.80
2018,10,22,00,05,6.80
2018,10,22,00,06,6.80
2018,10,22,00,07,6.80
2018,10,22,00,08,6.80
2018,10,22,00,09,6.80
2018,10,22,00,10,6.80
2018,10,22,00,11,6.80
2018,10,22,00,12,6.80
2018,10,22,00,13,6.80
2018,10,22,00,14,6.80
2018,10,22,00,15,6.80
2018,10,22,00,16,6.80
2018,10,22,00,17,6.80
2018,10,22,00,18,6.80
2018,10,22,00,19,6.80
2018,10,22,00,20,6.80
2018,10,22,00,21,6.80
2018,10,22,00,22,6.80
2018,10,22,00,23,6.70
2018,10,22,00,24,6.70
2018,10,22,00,25,6.70
2018,10,22,00,26,6.70
2018,10,22,00,27,6.70
2018,10,22,00,28,6.60
2018,10,22,00,29,6.60
2018,10,22,00,30,6.60
2018,10,22,00,31,6.60
2018,10,22,00,32,6.60
2018,10,22,00,33,6.60
2018,10,22,00,34,6.60
2018,10,22,00,35,6.60
2018,10,22,00,36,6.60
2018,10,22,00,37,6.60
2018,10,22,00,38,6.60
2018,10,22,00,39,6.60
2018,10,22,00,40,6.50
2018,10,22,00,41,6.50
2018,10,22,00,42,6.50
2018,10,22,00,43,6.50
2018,10,22,00,44,6.40
2018,10,22,00,45,6.40
2018,10,22,00,46,6.40
2018,10,22,00,47,6.40
2018,10,22,00,48,6.40
2018,10,22,00,49,6.40
2018,10,22,00,50,6.40
2018,10,22,00,51,6.50
2018,10,22,00,52,6.50
2018,10,22,00,53,6.50
2018,10,22,00,54,6.50
2018,10,22,00,55,6.50
2018,10,22,00,56,6.50
2018,10,22,00,57,6.40
2018,10,22,00,58,6.40
2018,10,22,00,59,6.40
2018,10,22,01,00,6.40
2018,10,22,01,01,6.40
2018,10,22,01,02,6.40
2018,10,22,01,03,6.40
2018,10,22,01,04,6.40
2018,10,22,01,05,6.40
2018,10,22,01,06,6.40
2018,10,22,01,07,6.50
2018,10,22,01,08,6.50
2018,10,22,01,09,6.50
2018,10,22,01,10,6.40
2018,10,22,01,11,6.40
2018,10,22,01,12,6.40
2018,10,22,01,13,6.40
2018,10,22,01,14,6.40
2018,10,22,01,15,6.40
2018,10,22,01,16,6.40
2018,10,22,01,17,6.40
2018,10,22,01,18,6.40
2018,10,22,01,19,6.40
2018,10,22,01,20,6.50
2018,10,22,01,21,6.50
2018,10,22,01,22,6.60
2018,10,22,01,23,6.60
2018,10,22,01,24,6.60
2018,10,22,01,25,6.60
2018,10,22,01,26,6.60
2018,10,22,01,27,6.60
2018,10,22,01,28,6.50
2018,10,22,01,29,6.50
2018,10,22,01,30,6.40
2018,10,22,01,31,6.40
2018,10,22,01,32,6.40
2018,10,22,01,33,6.40
2018,10,22,01,34,6.40
2018,10,22,01,35,6.40
2018,10,22,01,36,6.30
2018,10,22,01,37,6.30
2018,10,22,01,38,6.30
2018,10,22,01,39,6.30
2018,10,22,01,40,6.30
2018,10,22,01,41,6.30
2018,10,22,01,42,6.30
2018,10,22,01,43,6.30
2018,10,22,01,44,6.30
2018,10,22,01,45,6.30
2018,10,22,01,46,6.30
2018,10,22,01,47,6.30
2018,10,22,01,48,6.30
2018,10,22,01,49,6.30
2018,10,22,01,50,6.30
2018,10,22,01,51,6.30
2018,10,22,01,52,6.30
2018,10,22,01,53,6.30
2018,10,22,01,54,6.30
2018,10,22,01,55,6.30
2018,10,22,01,56,6.30
2018,10,22,01,57,6.30
2018,10,22,01,58,6.30
2018,10,22,01,59,6.30
2018,10,22,02,00,6.20
2018,10,22,02,01,6.20
2018,10,22,02,02,6.20
2018,10,22,02,03,6.20
2018,10,22,02,04,6.20
2018,10,22,02,05,6.10
2018,10,22,02,06,6.10
2018,10,22,02,07,6.10
2018,10,22,02,08,6.10
2018,10,22,02,09,6.10
2018,10,22,02,10,6.10
2018,10,22,02,11,6.10
2018,10,22,02,12,6.10
2018,10,22,02,13,6.10
2018,10,22,02,14,6.10
2018,10,22,02,15,6.10
2018,10,22,02,16,6.10
2018,10,22,02,17,6.10
2018,10,22,02,18,6.10
2018,10,22,02,19,6.10
2018,10,22,02,20,6.10
2018,10,22,02,21,6.10
2018,10,22,02,22,6.10
2018,10,22,02,23,6.10
2018,10,22,02,24,6.10
2018,10,22,02,25,6.10
2018,10,22,02,26,6.10
2018,10,22,02,27,6.10
2018,10,22,02,28,6.10
2018,10,22,02,29,6.10
2018,10,22,02,30,6.20
2018,10,22,02,31,6.20
2018,10,22,02,32,6.20
2018,10,22,02,33,6.10
2018,10,22,02,34,6.10
2018,10,22,02,35,6.10
2018,10,22,02,36,6.10
2018,10,22,02,37,6.10
2018,10,22,02,38,6.10
2018,10,22,02,39,6.20
2018,10,22,02,40,6.20
2018,10,22,02,41,6.10
2018,10,22,02,42,6.10
2018,10,22,02,43,6.10
2018,10,22,02,44,6.10
2018,10,22,02,45,6.10
2018,10,22,02,46,6.10
2018,10,22,02,47,6.00
2018,10,22,02,48,6.00
2018,10,22,02,49,6.10
2018,10,22,02,50,6.10
2018,10,22,02,51,6.10
2018,10,22,02,52,6.20
2018,10,22,02,53,6.10
2018,10,22,02,54,6.10
2018,10,22,02,55,6.10
2018,10,22,02,56,6.10
2018,10,22,02,57,6.10
2018,10,22,02,58,6.10
2018,10,22,02,59,6.10
2018,10,22,03,00,6.10
2018,10,22,03,01,6.10
2018,10,22,03,02,6.10
2018,10,22,03,03,6.10
2018,10,22,03,04,6.10
2018,10,22,03,05,6.10
2018,10,22,03,06,6.10
2018,10,22,03,07,6.10
2018,10,22,03,08,6.10
2018,10,22,03,09,6.10
2018,10,22,03,10,6.10
2018,10,22,03,11,6.10
2018,10,22,03,12,6.10
2018,10,22,03,13,6.00
2018,10,22,03,14,6.00
2018,10,22,03,15,6.00
2018,10,22,03,16,6.00
2018,10,22,03,17,6.00
2018,10,22,03,18,6.00
2018,10,22,03,19,6.00
2018,10,22,03,20,6.00
2018,10,22,03,21,5.90
2018,10,22,03,22,5.90
2018,10,22,03,23,5.90
2018,10,22,03,24,5.90
2018,10,22,03,25,5.90
2018,10,22,03,26,6.00
2018,10,22,03,27,6.00
2018,10,22,03,28,6.00
2018,10,22,03,29,6.00
2018,10,22,03,30,6.00
2018,10,22,03,31,6.00
2018,10,22,03,32,6.00
2018,10,22,03,33,6.00
2018,10,22,03,34,6.00
2018,10,22,03,35,6.00
2018,10,22,03,36,6.00
2018,10,22,03,37,6.00
2018,10,22,03,38,6.00
2018,10,22,03,39,6.00
2018,10,22,03,40,6.00
2018,10,22,03,41,6.10
2018,10,22,03,42,6.10
2018,10,22,03,43,6.10
2018,10,22,03,44,6.10
2018,10,22,03,45,6.10
2018,10,22,03,46,6.10
2018,10,22,03,47,6.00
2018,10,22,03,48,6.00
2018,10,22,03,49,6.00
2018,10,22,03,50,6.00
2018,10,22,03,51,5.90
2018,10,22,03,52,5.90
2018,10,22,03,53,6.00
2018,10,22,03,54,6.00
2018,10,22,03,55,6.00
2018,10,22,03,56,6.00
2018,10,22,03,57,6.00
2018,10,22,03,58,6.10
2018,10,22,03,59,6.10
2018,10,22,04,00,6.10
2018,10,22,04,01,6.00
2018,10,22,04,02,5.90
2018,10,22,04,03,5.90
2018,10,22,04,04,5.90
2018,10,22,04,05,5.90
2018,10,22,04,06,5.90
2018,10,22,04,07,5.90
2018,10,22,04,08,5.90
2018,10,22,04,09,5.90
2018,10,22,04,10,5.90
2018,10,22,04,11,5.90
2018,10,22,08,43,6.20
2018,10,22,08,44,6.20
2018,10,22,08,45,6.30
2018,10,22,08,46,6.30
2018,10,22,08,47,6.30
2018,10,22,08,48,6.40
2018,10,22,08,49,6.50
2018,10,22,08,50,6.60
2018,10,22,08,51,6.60
2018,10,22,08,52,6.70
2018,10,22,08,53,6.70
2018,10,22,08,54,6.80
2018,10,22,08,55,6.90
2018,10,22,08,56,6.90
2018,10,22,08,57,7.00
2018,10,22,08,58,7.10
2018,10,22,08,59,7.10
2018,10,22,09,00,7.20
2018,10,22,09,01,7.20
2018,10,22,09,02,7.30
2018,10,22,09,03,7.30
2018,10,22,09,04,7.30
2018,10,22,09,05,7.30
2018,10,22,09,06,7.30
2018,10,22,09,07,7.30
2018,10,22,09,08,7.30
2018,10,22,09,09,7.30
2018,10,22,09,10,7.30
2018,10,22,09,11,7.40
2018,10,22,09,12,7.50
2018,10,22,09,13,7.50
2018,10,22,09,14,7.60
2018,10,22,09,15,7.70
2018,10,22,09,16,7.90
2018,10,22,09,17,8.00
2018,10,22,09,18,8.00
2018,10,22,09,19,8.10
2018,10,22,09,20,8.20
2018,10,22,09,21,8.20
2018,10,22,09,22,8.30
2018,10,22,09,23,8.40
2018,10,22,09,24,8.40
2018,10,22,09,25,8.50
2018,10,22,09,26,8.60
2018,10,22,09,27,8.60
2018,10,22,09,28,8.70
2018,10,22,09,29,8.80
2018,10,22,09,30,8.80
2018,10,22,09,31,8.90
2018,10,22,09,32,8.90
2018,10,22,09,33,8.90
2018,10,22,09,34,9.00
2018,10,22,09,35,9.00
2018,10,22,09,36,9.00
2018,10,22,09,37,9.10
2018,10,22,09,38,9.10
2018,10,22,09,39,9.10
2018,10,22,09,40,9.20
2018,10,22,09,41,9.40
2018,10,22,09,42,9.50
2018,10,22,09,43,9.70
2018,10,22,09,44,9.80
2018,10,22,09,45,9.90
2018,10,22,09,46,10.00
2018,10,22,09,47,10.00
2018,10,22,09,48,10.00
2018,10,22,09,49,10.00
2018,10,22,09,50,10.00
2018,10,22,09,51,10.00
2018,10,22,09,52,10.00
2018,10,22,09,53,10.00
2018,10,22,09,54,10.10
2018,10,22,09,55,10.10
2018,10,22,09,56,10.10
2018,10,22,09,57,10.20
2018,10,22,09,58,10.30
2018,10,22,09,59,10.40
2018,10,22,10,00,10.50
2018,10,22,10,01,10.60
2018,10,22,10,02,10.80
2018,10,22,10,03,10.90
2018,10,22,10,04,11.00
2018,10,22,10,05,11.20
2018,10,22,10,06,11.30
2018,10,22,10,07,11.40
2018,10,22,10,08,11.60
2018,10,22,10,09,11.60
2018,10,22,10,10,11.70
2018,10,22,10,11,11.70
2018,10,22,10,12,11.70
2018,10,22,10,13,11.80
2018,10,22,10,14,11.80
2018,10,22,10,15,11.90
2018,10,22,10,16,12.00
2018,10,22,10,17,12.10
2018,10,22,10,18,12.20
2018,10,22,10,19,12.40
2018,10,22,10,20,12.40
2018,10,22,10,21,12.50
2018,10,22,10,22,12.60
2018,10,22,10,23,12.80
2018,10,22,10,24,12.80
2018,10,22,10,25,12.90
2018,10,22,10,26,12.90
2018,10,22,10,27,12.90
2018,10,22,10,28,12.90
2018,10,22,10,29,12.90
2018,10,22,10,30,12.90
2018,10,22,10,31,12.90
2018,10,22,10,32,13.00
2018,10,22,10,33,13.10
2018,10,22,10,34,13.20
2018,10,22,10,35,13.20
2018,10,22,10,36,13.30
2018,10,22,10,37,13.30
2018,10,22,10,38,13.30
2018,10,22,10,39,13.20
2018,10,22,10,40,13.30
2018,10,22,10,41,13.40
2018,10,22,10,42,13.40
2018,10,22,10,43,13.40
2018,10,22,10,44,13.40
2018,10,22,10,45,13.40
2018,10,22,10,46,13.40
2018,10,22,10,47,13.40
2018,10,22,10,48,13.60
2018,10,22,10,49,13.70
2018,10,22,10,50,13.70
2018,10,22,10,51,13.70
2018,10,22,10,52,13.70
2018,10,22,10,53,13.70
2018,10,22,10,54,13.80
2018,10,22,10,55,13.90
2018,10,22,10,56,14.00
2018,10,22,10,57,14.20
2018,10,22,10,58,14.30
2018,10,22,10,59,14.30
2018,10,22,11,00,14.40
2018,10,22,11,01,14.40
2018,10,22,11,02,14.40
2018,10,22,11,03,14.40
2018,10,22,11,04,14.40
2018,10,22,11,05,14.30
2018,10,22,11,06,14.30
2018,10,22,11,07,14.30
2018,10,22,11,08,14.30
2018,10,22,11,09,14.30
2018,10,22,11,10,14.30
2018,10,22,11,11,14.30
2018,10,22,11,12,14.30
2018,10,22,11,13,14.20
2018,10,22,11,14,14.20
2018,10,22,11,15,14.10
2018,10,22,11,16,14.10
2018,10,22,11,17,14.10
2018,10,22,11,18,14.10
2018,10,22,11,19,14.00
2018,10,22,11,20,14.00
2018,10,22,11,21,14.00
2018,10,22,11,22,14.10
2018,10,22,11,23,14.10
2018,10,22,11,24,14.10
2018,10,22,11,25,14.20
2018,10,22,11,26,14.20
2018,10,22,11,27,14.20
2018,10,22,11,28,14.20
2018,10,22,11,29,14.30
2018,10,22,11,30,14.30
2018,10,22,11,31,14.30
2018,10,22,11,32,14.40
2018,10,22,11,33,14.30
2018,10,22,11,34,14.30
2018,10,22,11,35,14.30
2018,10,22,11,36,14.30
2018,10,22,11,37,14.30
2018,10,22,11,38,14.30
2018,10,22,11,39,14.30
2018,10,22,11,40,14.30
2018,10,22,11,41,14.30
2018,10,22,11,42,14.30
2018,10,22,11,43,14.40
2018,10,22,11,44,14.50
2018,10,22,11,45,14.60
2018,10,22,11,46,14.60
2018,10,22,11,47,14.60
2018,10,22,11,48,14.60
2018,10,22,11,49,14.60
2018,10,22,11,50,14.60
2018,10,22,11,51,14.60
2018,10,22,11,52,14.60
2018,10,22,11,53,14.60
2018,10,22,11,54,14.70
2018,10,22,11,55,14.70
2018,10,22,11,56,14.80
2018,10,22,11,57,15.00
2018,10,22,11,58,15.00
2018,10,22,11,59,15.10
2018,10,22,12,00,15.20
2018,10,22,12,01,15.30
2018,10,22,12,02,15.30
2018,10,22,12,03,15.40
2018,10,22,12,04,15.40
2018,10,22,12,05,15.40
2018,10,22,12,06,15.50
2018,10,22,12,07,15.60
2018,10,22,12,08,15.60
2018,10,22,12,09,15.70
2018,10,22,12,10,15.70
2018,10,22,12,11,15.70
2018,10,22,12,12,15.70
2018,10,22,12,13,15.60
2018,10,22,12,14,15.50
2018,10,22,12,15,15.40
2018,10,22,12,16,15.40
2018,10,22,12,17,15.40
2018,10,22,12,18,15.40
2018,10,22,12,19,15.50
2018,10,22,12,20,15.50
2018,10,22,12,21,15.60
2018,10,22,12,22,15.60
2018,10,22,12,23,15.60
2018,10,22,12,24,15.50
2018,10,22,12,25,15.50
2018,10,22,12,26,15.60
2018,10,22,12,27,15.50
2018,10,22,12,28,15.50
2018,10,22,12,29,15.40
2018,10,22,12,30,15.40
2018,10,22,12,31,15.30
2018,10,22,12,32,15.20
2018,10,22,12,33,15.00
2018,10,22,12,34,15.00
2018,10,22,12,35,15.00
2018,10,22,12,36,14.80
2018,10,22,12,37,14.70
2018,10,22,12,38,14.60
2018,10,22,12,39,14.50
2018,10,22,12,40,14.50
2018,10,22,12,41,14.50
2018,10,22,12,42,14.40
2018,10,22,12,43,14.40
2018,10,22,12,44,14.40
2018,10,22,12,45,14.40
2018,10,22,12,46,14.40
2018,10,22,12,47,14.50
2018,10,22,12,48,14.60
2018,10,22,12,49,14.60
2018,10,22,12,50,14.70
2018,10,22,12,51,14.80
2018,10,22,12,52,14.80
2018,10,22,12,53,14.90
2018,10,22,12,54,15.00
2018,10,22,12,55,15.00
2018,10,22,12,56,15.00
2018,10,22,12,57,15.00
2018,10,22,12,58,15.00
2018,10,22,12,59,15.00
2018,10,22,13,00,15.00
2018,10,22,13,01,15.00
2018,10,22,13,02,15.00
2018,10,22,13,03,15.00
2018,10,22,13,04,15.00
2018,10,22,13,05,15.00
2018,10,22,13,06,14.90
2018,10,22,13,07,14.80
2018,10,22,13,08,14.70
2018,10,22,13,09,14.70
2018,10,22,13,10,14.60
2018,10,22,13,11,14.60
2018,10,22,13,12,14.60
2018,10,22,13,13,14.60
2018,10,22,13,14,14.60
2018,10,22,13,15,14.70
2018,10,22,13,16,14.70
2018,10,22,13,17,14.70
2018,10,22,13,18,14.70
2018,10,22,13,19,14.80
2018,10,22,13,20,14.80
2018,10,22,13,21,14.80
2018,10,22,13,22,14.80
2018,10,22,13,23,14.80
2018,10,22,13,24,14.90
2018,10,22,13,25,14.90
2018,10,22,13,26,14.90
2018,10,22,13,27,14.90
2018,10,22,13,28,14.90
2018,10,22,13,29,14.90
2018,10,22,13,30,14.90
2018,10,22,13,31,14.90
2018,10,22,13,32,14.90
2018,10,22,13,33,14.90
2018,10,22,13,34,14.80
2018,10,22,13,35,14.80
2018,10,22,13,36,14.70
2018,10,22,13,37,14.70
2018,10,22,13,38,14.70
2018,10,22,13,39,14.80
2018,10,22,13,40,14.80
2018,10,22,13,41,14.90
2018,10,22,13,42,14.90
2018,10,22,13,43,15.00
2018,10,22,13,44,15.00
2018,10,22,13,45,15.00
2018,10,22,13,46,15.00
2018,10,22,13,47,15.00
2018,10,22,13,48,14.90
2018,10,22,13,49,14.90
2018,10,22,13,50,14.90
2018,10,22,13,51,14.90
2018,10,22,13,52,14.80
2018,10,22,13,53,14.80
2018,10,22,13,54,14.80
2018,10,22,13,55,14.80
2018,10,22,13,56,14.90
2018,10,22,13,57,14.80
2018,10,22,13,58,14.80
2018,10,22,13,59,14.80
2018,10,22,14,00,14.80
2018,10,22,14,01,14.70
2018,10,22,14,02,14.80
2018,10,22,14,03,14.80
2018,10,22,14,04,14.90
2018,10,22,14,05,15.00
2018,10,22,14,06,15.00
2018,10,22,14,07,15.00
2018,10,22,14,08,15.10
2018,10,22,14,09,15.20
2018,10,22,14,10,15.30
2018,10,22,14,11,15.30
2018,10,22,14,12,15.30
2018,10,22,14,13,15.30
2018,10,22,14,14,15.30
2018,10,22,14,15,15.20
2018,10,22,14,16,15.10
2018,10,22,14,17,15.00
2018,10,22,14,18,15.00
2018,10,22,14,19,15.00
2018,10,22,14,20,15.00
2018,10,22,14,21,15.00
2018,10,22,14,22,15.00
2018,10,22,14,23,15.10
2018,10,22,14,24,15.10
2018,10,22,14,25,15.10
2018,10,22,14,26,15.20
2018,10,22,14,27,15.20
2018,10,22,14,28,15.30
2018,10,22,14,29,15.30
2018,10,22,14,30,15.30
2018,10,22,14,31,15.30
2018,10,22,14,32,15.30
2018,10,22,14,33,15.30
2018,10,22,14,34,15.30
2018,10,22,14,35,15.40
2018,10,22,14,36,15.40
2018,10,22,14,37,15.40
2018,10,22,14,38,15.40
2018,10,22,14,39,15.30
2018,10,22,14,40,15.20
2018,10,22,14,41,15.20
2018,10,22,14,42,15.10
2018,10,22,14,43,15.10
2018,10,22,14,44,15.20
2018,10,22,14,45,15.20
2018,10,22,14,46,15.20
2018,10,22,14,47,15.20
2018,10,22,14,48,15.20
2018,10,22,14,49,15.30
2018,10,22,14,50,15.40
2018,10,22,14,51,15.40
2018,10,22,14,52,15.50
2018,10,22,14,53,15.50
2018,10,22,14,54,15.50
2018,10,22,14,55,15.40
2018,10,22,14,56,15.50
2018,10,22,14,57,15.50
2018,10,22,14,58,15.40
2018,10,22,14,59,15.50
2018,10,22,15,00,15.50
2018,10,22,15,01,15.60
2018,10,22,15,02,15.60
2018,10,22,15,03,15.70
2018,10,22,15,04,15.80
2018,10,22,15,05,15.80
2018,10,22,15,06,15.90
2018,10,22,15,07,15.90
2018,10,22,15,08,16.00
2018,10,22,15,09,16.00
2018,10,22,15,10,16.00
2018,10,22,15,11,16.00
2018,10,22,15,12,16.10
2018,10,22,15,13,16.10
2018,10,22,15,14,16.10
2018,10,22,15,15,16.20
2018,10,22,15,16,16.20
2018,10,22,15,17,16.20
2018,10,22,15,18,16.30
2018,10,22,15,19,16.30
2018,10,22,15,20,16.30
2018,10,22,15,21,16.30
2018,10,22,15,22,16.20
2018,10,22,15,23,16.20
2018,10,22,15,24,16.20
2018,10,22,15,25,16.10
2018,10,22,15,26,16.10
2018,10,22,15,27,16.10
2018,10,22,15,28,16.00
2018,10,22,15,29,15.90
2018,10,22,15,30,15.90
2018,10,22,15,31,15.80
2018,10,22,15,32,15.80
2018,10,22,15,33,15.80
2018,10,22,15,34,15.80
2018,10,22,15,35,15.80
2018,10,22,15,36,15.90
2018,10,22,15,37,15.80
2018,10,22,15,38,15.80
2018,10,22,15,39,15.80
2018,10,22,15,40,15.80
2018,10,22,15,41,15.80
2018,10,22,15,42,15.70
2018,10,22,15,43,15.70
2018,10,22,15,44,15.70
2018,10,22,15,45,15.70
2018,10,22,15,46,15.60
2018,10,22,15,47,15.60
2018,10,22,15,48,15.60
2018,10,22,15,49,15.60
2018,10,22,15,50,15.60
2018,10,22,15,51,15.50
2018,10,22,15,52,15.50
2018,10,22,15,53,15.50
2018,10,22,15,54,15.60
2018,10,22,15,55,15.60
2018,10,22,15,56,15.70
2018,10,22,15,57,15.80
2018,10,22,15,58,15.80
2018,10,22,15,59,15.90
2018,10,22,16,00,15.90
2018,10,22,16,01,15.90
2018,10,22,16,02,15.80
2018,10,22,16,03,15.80
2018,10,22,16,04,15.70
2018,10,22,16,05,15.50
2018,10,22,16,06,15.40
2018,10,22,16,07,15.40
2018,10,22,16,08,15.40
2018,10,22,16,09,15.30
2018,10,22,16,10,15.30
2018,10,22,16,11,15.30
2018,10,22,16,12,15.30
2018,10,22,16,13,15.30
2018,10,22,16,14,15.30
2018,10,22,16,15,15.30
2018,10,22,16,16,15.30
2018,10,22,16,17,15.30
2018,10,22,16,18,15.30
2018,10,22,16,19,15.30
2018,10,22,16,20,15.30
2018,10,22,16,21,15.30
2018,10,22,16,22,15.30
2018,10,22,16,23,15.30
2018,10,22,16,24,15.30
2018,10,22,16,25,15.30
2018,10,22,16,26,15.20
2018,10,22,16,27,15.20
2018,10,22,16,28,15.20
2018,10,22,16,29,15.20
2018,10,22,16,30,15.10
2018,10,22,16,31,15.00
2018,10,22,16,32,15.00
2018,10,22,16,33,15.00
2018,10,22,16,34,15.00
2018,10,22,16,35,14.90
2018,10,22,16,36,14.80
2018,10,22,16,37,14.80
2018,10,22,16,38,14.70
2018,10,22,16,39,14.60
2018,10,22,16,40,14.60
2018,10,22,16,41,14.50
2018,10,22,16,42,14.50
2018,10,22,16,43,14.40
2018,10,22,16,44,14.40
2018,10,22,16,45,14.40
2018,10,22,16,46,14.30
2018,10,22,16,47,14.30
2018,10,22,16,48,14.30
2018,10,22,16,49,14.30
2018,10,22,16,50,14.20
2018,10,22,16,51,14.20
2018,10,22,16,52,14.20
2018,10,22,16,53,14.20
2018,10,22,16,54,14.20
2018,10,22,16,55,14.20
2018,10,22,16,56,14.10
2018,10,22,16,57,14.10
2018,10,22,16,58,14.10
2018,10,22,16,59,14.10
2018,10,22,17,00,14.10
2018,10,22,17,01,14.20
2018,10,22,17,02,14.20
2018,10,22,17,03,14.20
2018,10,22,17,04,14.20
2018,10,22,17,05,14.20
2018,10,22,17,06,14.20
2018,10,22,17,07,14.20
2018,10,22,17,08,14.20
2018,10,22,17,09,14.10
2018,10,22,17,10,14.10
2018,10,22,17,11,14.10
2018,10,22,17,12,14.00
2018,10,22,17,13,13.90
2018,10,22,17,14,13.90
2018,10,22,17,15,13.90
2018,10,22,17,16,13.80
2018,10,22,17,17,13.80
2018,10,22,17,18,13.80
2018,10,22,17,19,13.70
2018,10,22,17,20,13.70
2018,10,22,17,21,13.60
2018,10,22,17,22,13.60
2018,10,22,17,23,13.50
2018,10,22,17,24,13.50
2018,10,22,17,25,13.40
2018,10,22,17,26,13.40
2018,10,22,17,27,13.30
2018,10,22,17,28,13.30
2018,10,22,17,29,13.30
2018,10,22,17,30,13.30
2018,10,22,17,31,13.30
2018,10,22,17,32,13.20
2018,10,22,17,33,13.20
2018,10,22,17,34,13.10
2018,10,22,17,35,13.10
2018,10,22,17,36,13.00
2018,10,22,17,37,13.00
2018,10,22,17,38,12.90
2018,10,22,17,39,12.90
2018,10,22,17,40,12.80
2018,10,22,17,41,12.80
2018,10,22,17,42,12.80
2018,10,22,17,43,12.80
2018,10,22,17,44,12.70
2018,10,22,17,45,12.70
2018,10,22,17,46,12.70
2018,10,22,17,47,12.70
2018,10,22,17,48,12.60
2018,10,22,17,49,12.60
2018,10,22,17,50,12.60
2018,10,22,17,51,12.50
2018,10,22,17,52,12.50
2018,10,22,17,53,12.50
2018,10,22,17,54,12.40
2018,10,22,17,55,12.40
2018,10,22,17,56,12.30
2018,10,22,17,57,12.30
2018,10,22,17,58,12.30
2018,10,22,17,59,12.20
2018,10,22,18,00,12.20
2018,10,22,18,01,12.20
2018,10,22,18,02,12.10
2018,10,22,18,03,12.10
2018,10,22,18,04,12.00
2018,10,22,18,05,12.00
2018,10,22,18,06,11.90
2018,10,22,18,07,11.90
2018,10,22,18,08,11.80
2018,10,22,18,09,11.80
2018,10,22,18,10,11.80
2018,10,22,18,11,11.70
2018,10,22,18,12,11.70
2018,10,22,18,13,11.60
2018,10,22,18,14,11.60
2018,10,22,18,15,11.50
2018,10,22,18,16,11.50
2018,10,22,18,17,11.40
2018,10,22,18,18,11.40
2018,10,22,18,19,11.40
2018,10,22,18,20,11.30
2018,10,22,18,21,11.30
2018,10,22,18,22,11.20
2018,10,22,18,23,11.20
2018,10,22,18,24,11.20
2018,10,22,18,25,11.10
2018,10,22,18,26,11.10
2018,10,22,18,27,11.10
2018,10,22,18,28,11.10
2018,10,22,18,29,11.00
2018,10,22,18,30,11.00
2018,10,22,18,31,11.00
2018,10,22,18,32,10.90
2018,10,22,18,33,10.90
2018,10,22,18,34,10.90
2018,10,22,18,35,10.90
2018,10,22,18,36,10.80
2018,10,22,18,37,10.80
2018,10,22,18,38,10.80
2018,10,22,18,39,10.80
2018,10,22,18,40,10.70
2018,10,22,18,41,10.70
2018,10,22,18,42,10.60
2018,10,22,18,43,10.60
2018,10,22,18,44,10.60
2018,10,22,18,45,10.50
2018,10,22,18,46,10.50
2018,10,22,18,47,10.40
2018,10,22,18,48,10.40
2018,10,22,18,49,10.30
2018,10,22,18,50,10.30
2018,10,22,18,51,10.30
2018,10,22,18,52,10.20
2018,10,22,18,53,10.20
2018,10,22,18,54,10.20
2018,10,22,18,55,10.10
2018,10,22,18,56,10.10
2018,10,22,18,57,10.10
2018,10,22,18,58,10.00
2018,10,22,18,59,10.00
2018,10,22,19,00,10.00
2018,10,22,19,01,9.90
2018,10,22,19,02,9.90
2018,10,22,19,03,9.90
2018,10,22,19,04,9.90
2018,10,22,19,05,9.80
2018,10,22,19,06,9.80
2018,10,22,19,07,9.80
2018,10,22,19,08,9.80
2018,10,22,19,09,9.80
2018,10,22,19,10,9.80
2018,10,22,19,11,9.80
2018,10,22,19,12,9.70
2018,10,22,19,13,9.70
2018,10,22,19,14,9.70
2018,10,22,19,15,9.70
2018,10,22,19,16,9.70
2018,10,22,19,17,9.70
2018,10,22,19,18,9.70
2018,10,22,19,19,9.70
2018,10,22,19,20,9.60
2018,10,22,19,21,9.60
2018,10,22,19,22,9.60
2018,10,22,19,23,9.60
2018,10,22,19,24,9.60
2018,10,22,19,25,9.60
2018,10,22,19,26,9.50
2018,10,22,19,27,9.50
2018,10,22,19,28,9.50
2018,10,22,19,29,9.40
2018,10,22,19,30,9.40
2018,10,22,19,31,9.40
2018,10,22,19,32,9.30
2018,10,22,19,33,9.30
2018,10,22,19,34,9.30
2018,10,22,19,35,9.30
2018,10,22,19,36,9.30
2018,10,22,19,37,9.20
2018,10,22,19,38,9.20
2018,10,22,19,39,9.20
2018,10,22,19,40,9.20
2018,10,22,19,41,9.20
2018,10,22,19,42,9.20
2018,10,22,19,43,9.10
2018,10,22,19,44,9.10
2018,10,22,19,45,9.10
2018,10,22,19,46,9.00
2018,10,22,19,47,9.00
2018,10,22,19,48,9.00
2018,10,22,19,49,9.00
2018,10,22,19,50,9.00
2018,10,22,19,51,8.90
2018,10,22,19,52,8.90
2018,10,22,19,53,8.90
2018,10,22,19,54,8.90
2018,10,22,19,55,8.90
2018,10,22,19,56,8.80
2018,10,22,19,57,8.80
2018,10,22,19,58,8.80
2018,10,22,19,59,8.80
2018,10,22,20,00,8.80
2018,10,22,20,01,8.70
2018,10,22,20,02,8.70
2018,10,22,20,03,8.70
2018,10,22,20,04,8.70
2018,10,22,20,05,8.70
2018,10,22,20,06,8.70
2018,10,22,20,07,8.70
2018,10,22,20,08,8.60
2018,10,22,20,09,8.60
2018,10,22,20,10,8.60
2018,10,22,20,11,8.60
2018,10,22,20,12,8.60
2018,10,22,20,13,8.60
2018,10,22,20,14,8.50
2018,10,22,20,15,8.50
2018,10,22,20,16,8.50
2018,10,22,20,17,8.50
2018,10,22,20,18,8.50
2018,10,22,20,19,8.40
2018,10,22,20,20,8.40
2018,10,22,20,21,8.40
2018,10,22,20,22,8.40
2018,10,22,20,23,8.40
2018,10,22,20,24,8.40
2018,10,22,20,25,8.40
2018,10,22,20,26,8.40
2018,10,22,20,27,8.30
2018,10,22,20,28,8.30
2018,10,22,20,29,8.30
2018,10,22,20,30,8.30
2018,10,22,20,31,8.30
2018,10,22,20,32,8.30
2018,10,22,20,33,8.30
2018,10,22,20,34,8.30
2018,10,22,20,35,8.30
2018,10,22,20,36,8.30
2018,10,22,20,37,8.20
2018,10,22,20,38,8.20
2018,10,22,20,39,8.20
2018,10,22,20,40,8.20
2018,10,22,20,41,8.20
2018,10,22,20,42,8.20
2018,10,22,20,43,8.20
2018,10,22,20,44,8.20
2018,10,22,20,45,8.20
2018,10,22,20,46,8.20
2018,10,22,20,47,8.20
2018,10,22,20,48,8.20
2018,10,22,20,49,8.20
2018,10,22,20,50,8.20
2018,10,22,20,51,8.20
2018,10,22,20,52,8.20
2018,10,22,20,53,8.20
2018,10,22,20,54,8.10
2018,10,22,20,55,8.10
2018,10,22,20,56,8.10
2018,10,22,20,57,8.10
2018,10,22,20,58,8.10
2018,10,22,20,59,8.00
2018,10,22,21,00,8.00
2018,10,22,21,01,8.00
2018,10,22,21,02,8.00
2018,10,22,21,03,8.00
2018,10,22,21,04,8.00
2018,10,22,21,05,7.90
2018,10,22,21,06,7.90
2018,10,22,21,07,7.90
2018,10,22,21,08,7.90
2018,10,22,21,09,7.90
2018,10,22,21,10,7.90
2018,10,22,21,11,7.90
2018,10,22,21,12,7.90
2018,10,22,21,13,7.90
2018,10,22,21,14,7.90
2018,10,22,21,15,7.90
2018,10,22,21,16,7.90
2018,10,22,21,17,7.90
2018,10,22,21,18,7.90
2018,10,22,21,19,7.90
2018,10,22,21,20,7.90
2018,10,22,21,21,7.90
2018,10,22,21,22,7.80
2018,10,22,21,23,7.80
2018,10,22,21,24,7.80
2018,10,22,21,25,7.80
2018,10,22,21,26,7.80
2018,10,22,21,27,7.80
2018,10,22,21,28,7.80
2018,10,22,21,29,7.80
2018,10,22,21,30,7.80
2018,10,22,21,31,7.80
2018,10,22,21,32,7.80
2018,10,22,21,33,7.80
2018,10,22,21,34,7.80
2018,10,22,21,35,7.70
2018,10,22,21,36,7.70
2018,10,22,21,37,7.70
2018,10,22,21,38,7.70
2018,10,22,21,39,7.70
2018,10,22,21,40,7.70
2018,10,22,21,41,7.60
2018,10,22,21,42,7.60
2018,10,22,21,43,7.60
2018,10,22,21,44,7.60
2018,10,22,21,45,7.60
2018,10,22,21,46,7.60
2018,10,22,21,47,7.60
2018,10,22,21,48,7.60
2018,10,22,21,49,7.60
2018,10,22,21,50,7.60
2018,10,22,21,51,7.60
2018,10,22,21,52,7.50
2018,10,22,21,53,7.60
2018,10,22,21,54,7.50
2018,10,22,21,55,7.60
2018,10,22,21,56,7.60
2018,10,22,21,57,7.50
2018,10,22,21,58,7.50
2018,10,22,21,59,7.50
2018,10,22,22,00,7.50
2018,10,22,22,01,7.50
2018,10,22,22,02,7.50
2018,10,22,22,03,7.50
2018,10,22,22,04,7.50
2018,10,22,22,05,7.50
2018,10,22,22,06,7.40
2018,10,22,22,07,7.40
2018,10,22,22,08,7.40
2018,10,22,22,09,7.40
2018,10,22,22,10,7.40
2018,10,22,22,11,7.40
2018,10,22,22,12,7.40